Home > Weather > Neusiedl am See > Past weeks

Flag for Austria Past Weather in Neusiedl am See, Burgenland, Austria — Yesterday and Last 2 Weeks

Now
71 °F

Scattered clouds.


Feels Like: 71 °F
Forecast: 72 / 85 °F
Wind: 2 mph from South

Location: Eisenstadt

Current Time: Jul 25, 2016 at 8:13:16 AM

Latest Report: Jul 25, 2016 at 7:00 AM


Visibility: 11 mi

Pressure: 30.01 "Hg

Humidity: 80%

Dew Point: 64 °F

Location of Neusiedl am SeeLocation

Past Weather in Neusiedl am See — Graph

°F

Neusiedl am See Temperature Yesterday

Maximum temperature yesterday: 84 °F (at 3:00 PM)
Minimum temperature yesterday: 69 °F (at 7:00 AM)
Average temperature yesterday: 76 °F

High & Low Weather Summary for the Past Weeks

 TemperatureHumidityPressure
High93 °F (Jul 11, 2:00 PM)95% (Jul 23, 2:00 AM)30.19 "Hg (Jul 23, 2:00 AM)
Low56 °F (Jul 14, 7:00 AM)35% (Jul 11, 2:00 PM)29.73 "Hg (Jul 14, 7:00 AM)
Average71 °F68%29.99 "Hg
* Reported Jul 10 7:00 AM — Jul 25 7:00 AM, Neusiedl am See, Weather by CustomWeather, © 2016

Note: Actual official high and low records may vary slightly from our data, if they occured in-between our weather recording intervals... More about our weather records

Advertising

Neusiedl am See Weather History for the Previous 24 Hours

Scroll right to see more
 ConditionsComfort  
Time TempWeatherWind HumidityBarometerVisibility
7:00 AM
Mon, Jul 25
71 °FScattered clouds.2 mph80%30.01 "Hg11 mi
6:00 AM71 °FScattered clouds.2 mph79%30.01 "Hg9 mi
5:00 AM72 °FOvercast.1 mph76%30.01 "Hg9 mi
4:00 AM72 °FOvercast.1 mph75%30.01 "Hg9 mi
3:00 AM74 °FMild.5 mph72%29.99 "HgN/A
2:00 AM73 °FOvercast.2 mph75%30.00 "Hg9 mi
1:00 AM73 °FMild.5 mph76%30.01 "HgN/A
12:00 AM74 °FMild.3 mph75%30.02 "HgN/A
11:00 PM
Sun, Jul 24
74 °FOvercast.3 mph76%30.02 "Hg9 mi
10:00 PM73 °FMild.2 mph83%30.01 "HgN/A
9:00 PM74 °FMild.3 mph82%30.01 "HgN/A
8:00 PM76 °FOvercast.2 mph79%29.99 "Hg9 mi
7:00 PM80 °FPartly sunny.2 mph73%29.99 "Hg9 mi
6:00 PM82 °FWarm.1 mph60%29.98 "HgN/A
5:00 PM82 °FPartly sunny.3 mph57%29.99 "Hg12 mi
4:00 PM84 °FWarm.5 mph48%29.99 "HgN/A
3:00 PM84 °FWarm.3 mph51%30.00 "HgN/A
2:00 PM82 °FWarm.6 mph53%30.01 "HgN/A
1:00 PM82 °FWarm.5 mph56%30.01 "HgN/A
12:00 PM81 °FWarm.2 mph58%30.01 "HgN/A
11:00 AM77 °FWarm.1 mph67%30.03 "HgN/A
10:00 AM77 °FWarm.3 mph66%30.01 "HgN/A
9:00 AM74 °FMild.3 mph72%30.02 "HgN/A
8:00 AM71 °FPartly sunny.5 mph81%30.01 "Hg12 mi
Weather by CustomWeather, © 2016

See weather overviewHow to use our weather pages